Starlink 31368

operational
NORAD ID: 58970 Int'l Des: 2024-031 Owner: SPXS Country: US Constellation: starlink
LEOCIRCULAR

About Starlink 31368

Description loading...

Live Position

Loading 3D Globe...

Upcoming Passes

Altitude History

Altitude vs Time

uPlot chart will show altitude changes over time

Two-Line Element Set

1 58970U 24031F 25351.30626843 -.00000370 00000-0 -36269-6 0 9991
2 58970 53.1620 319.1018 0001381 98.9917 261.1240 15.30192279103927
Epoch: Dec 17, 2025 • Age: 11 hours

Current Status

Altitude 493.3 km
Velocity 7.62 km/s
Sub-Earth Point -49.61°S, 100.88°W
Launch Date Feb 15, 2024
Age 1.8 years
Type internet

Technical Details

Classification Payload
Mass 730.00 kg
Dry Mass 700.00 kg
Total Mass 730.00 kg
Length 0.30 m
Diameter 4.10 m
Span 29.00 m
Shape Box + pan
Manufacturer SPXS
Bus Type Starlink V2M
Phase Status In Orbit
Owner/State SPXS/US

Large Constellations

Loading constellations...